DW2257 Weather Reports


time (UTC)temp
F
wind
direction
speed
knots
gust
knots
rain 1hr
in
rain 24hr
in
rain mn
in
humidity
%
barometer
mb
20260507101642 50 283 0.0 6.1 0.00 0.00 0.00 90 1006.0
20260507100134 50 295 0.0 5.2 0.00 0.00 0.00 90 1005.6
20260507094652 51 250 0.0 7.8 0.00 0.00 0.00 89 1005.7
20260507093152 51 344 2.6 7.8 0.00 0.00 0.00 89 1005.4
20260507091650 52 313 0.9 8.7 0.00 0.00 0.00 88 1005.6
20260507090147 53 310 1.7 6.1 0.00 0.00 0.00 88 1005.6
20260507084645 53 191 0.9 3.5 0.00 0.00 0.00 88 1005.4
20260507083142 54 262 0.9 3.5 0.00 0.00 0.00 86 1005.4
20260507081641 54 309 1.7 8.7 0.00 0.00 0.00 84 1005.7
20260507080133 54 271 1.7 10.4 0.00 0.00 0.00 83 1005.0
20260507074712 55 292 0.9 7.0 0.00 0.00 0.00 82 1005.2
20260507073148 55 348 0.9 7.8 0.00 0.00 0.00 83 1004.6
20260507071639 55 291 1.7 4.3 0.00 0.00 0.00 84 1004.7
20260507070134 56 231 1.7 6.1 0.00 0.00 0.00 83 1004.7
20260507064651 56 227 0.9 7.8 0.00 0.00 0.00 81 1004.7
20260507063151 56 252 2.6 10.4 0.00 0.00 0.00 83 1004.5
20260507061648 57 303 1.7 5.2 0.00 0.00 0.00 88 1004.4
20260507060146 58 332 0.0 6.1 0.00 0.00 0.00 88 1004.6
20260507054640 58 273 5.2 8.7 0.00 0.00 0.00 88 1004.9
20260507053134 58 261 1.7 5.2 0.00 0.00 0.00 89 1004.5
20260507051652 59 319 0.9 8.7 0.00 0.00 0.00 90 1004.8
20260507050150 60 291 4.3 13.9 0.00 0.00 0.00 93 1004.5
20260507044705 60 282 0.9 6.1 0.00 0.00 0.00 94 1004.3
20260507043140 60 263 2.6 4.3 0.00 0.00 0.00 95 1004.3
20260507041634 60 234 2.6 5.2 0.00 0.00 0.00 95 1004.6
20260507040152 60 247 6.1 9.6 0.00 0.00 0.00 95 1004.8
20260507034706 58 231 5.2 8.7 0.00 0.00 0.00 95 1004.4
20260507033137 57 219 3.5 7.0 0.00 0.00 0.00 94 1004.4
20260507031652 56 228 3.5 7.0 0.00 0.00 0.00 94 1004.2
20260507030151 57 163 2.6 7.8 0.00 0.00 0.00 94 1004.0
20260507024648 56 216 4.3 8.7 0.00 0.00 0.00 94 1004.3
20260507023147 57 210 3.5 8.7 0.00 0.00 0.00 94 1004.3
20260507021645 57 209 3.5 8.7 0.00 0.00 0.00 94 1004.2
20260507020146 57 176 2.6 7.0 0.00 0.00 0.00 94 1004.3
20260507014639 57 263 2.6 2.6 0.00 0.00 0.00 94 1004.4
20260507013132 0 0.0 0.0 0.00 0.00 0.00 -0.1
20260507011709 0 0.0 0.0 0.00 0.00 0.00 -0.1
20260507010144 0 0.0 0.0 0.00 0.00 0.00 -0.1
20260507004637 0 0.0 0.0 0.00 0.00 0.00 -0.1
20260507003154 0 0.0 0.0 0.00 0.00 0.00 -0.1
20260507001649 0 0.0 0.0 0.00 0.00 0.00 -0.1
20260507000147 0 0.0 0.0 0.00 0.00 0.00 -0.1
20260506234648 0 0.0 0.0 0.00 0.00 0.00 -0.1
20260506233144 0 0.0 0.0 0.00 0.00 0.00 -0.1
20260506231640 0 0.0 0.0 0.00 0.00 0.00 -0.1
20260506230133 0 0.0 0.0 0.00 0.00 0.00 -0.1
20260506224651 0 0.0 0.0 0.00 0.00 0.00 -0.1
20260506223147 0 0.0 0.0 0.00 0.00 0.00 -0.1
20260506221644 0 0.0 0.0 0.00 0.00 0.00 -0.1
20260506220140 0 0.0 0.0 0.00 0.00 0.00 -0.1
20260506214633 0 0.0 0.0 0.00 0.00 0.00 -0.1
20260506213149 0 0.0 0.0 0.00 0.00 0.00 -0.1
20260506211645 0 0.0 0.0 0.00 0.00 0.00 -0.1
20260506210053 0 0.0 0.0 0.00 0.00 0.00 -0.1
20260506160139 63 130 6.1 11.3 0.00 0.00 0.00 75 1007.5
20260506154656 63 159 6.1 11.3 0.00 0.00 0.00 75 1007.7
20260506153150 64 136 7.0 11.3 0.00 0.00 0.00 74 1008.0
20260506151647 64 181 7.0 12.2 0.00 0.00 0.00 74 1008.1
20260506150138 63 160 7.8 13.0 0.00 0.00 0.00 75 1008.2
20260506144656 63 165 4.3 10.4 0.00 0.00 0.00 76 1008.1
20260506143213 63 168 7.8 12.2 0.00 0.00 0.00 77 1008.0
20260506141647 62 169 7.0 10.4 0.00 0.00 0.00 78 1008.1
20260506140138 61 171 5.2 10.4 0.00 0.00 0.00 80 1008.1
20260506134654 60 195 7.0 11.3 0.00 0.00 0.00 82 1008.5
20260506133149 60 161 5.2 11.3 0.00 0.00 0.00 82 1008.7
20260506131639 60 142 5.2 8.7 0.00 0.00 0.00 84 1008.6
20260506130216 59 159 6.1 10.4 0.00 0.00 0.00 83 1008.6
20260506124650 60 195 4.3 8.7 0.00 0.00 0.00 84 1009.0
20260506123151 59 152 4.3 9.6 0.00 0.00 0.00 85 1008.6
20260506121646 58 162 5.2 7.8 0.00 0.00 0.00 86 1008.5
20260506120140 58 131 4.3 9.6 0.00 0.00 0.00 87 1008.9
20260506114654 58 187 4.3 7.8 0.00 0.00 0.00 87 1009.3
20260506113151 57 175 4.3 10.4 0.00 0.00 0.00 87 1009.0
20260506111647 57 144 3.5 7.8 0.00 0.00 0.00 87 1009.1
20260506110201 57 155 2.6 7.8 0.00 0.00 0.00 87 1009.1
20260506104656 57 163 4.3 7.8 0.00 0.00 0.00 87 1009.1
20260506103150 58 125 3.5 6.1 0.00 0.00 0.00 87 1009.1